This is the latest recevied weather packets stored in our database for station/object VU3HGG-15. If no packets are shown the sender has not sent any weather packets the latest 10 day(s).
| Time | Temp. | Humidity | Pressure | Rain* | Wind** | Luminosity | Snow |
|---|---|---|---|---|---|---|---|
| 1787480820 | 31.11° C | 58% | 905.8 hPa | - | - | - | - |
| 1787480767 | 0° C | 59% | - | - | - | - | - |
| 1787480449 | 42.22° C | 60% | 896 hPa | - | - | - | - |
| 1787480364 | 36.11° C | 60% | 955.3 hPa | - | - | - | - |
| 1787480322 | 53.33° C | 60% | 2632.8 hPa | - | - | - | - |
| 1787480222 | 31.11° C | 62% | 904.9 hPa | - | - | - | - |
| 1787479942 | 177.78° C | 66% | 916.5 hPa | - | - | - | - |
| 1787479881 | 177.78° C | 64% | - | - | - | - | - |
| 1787479281 | 32.22° C | 68% | 905.8 hPa | - | - | - | - |
| 1787478681 | 32.22° C | 68% | 906.1 hPa | - | - | - | - |
| 1787478082 | 32.22° C | 69% | 906 hPa | - | - | - | - |
| 1787477482 | 31.67° C | 71% | 906.2 hPa | - | - | - | - |
| 1787476882 | 31.11° C | 72% | - | - | - | - | - |
| 1787476282 | 29.44° C | 78% | 906.5 hPa | - | - | - | - |
| 1787475682 | 25.56° C | 73% | 906.4 hPa | - | - | - | - |
| 1787464160 | 32.78° C | 58% | 961.1 hPa | - | - | - | - |
| 1787463560 | 32.22° C | 58% | 961.1 hPa | - | - | - | - |
| 1787462960 | 32.22° C | 58% | 961.2 hPa | - | - | - | - |
| 1787462361 | 32.22° C | 59% | 961.3 hPa | - | - | - | - |
| 1787461760 | 32.22° C | 59% | 961.4 hPa | - | - | - | - |
| 1787461160 | 32.22° C | 59% | 961.5 hPa | - | - | - | - |
| 1787460560 | 32.22° C | 60% | 961.5 hPa | - | - | - | - |
| 1787459961 | 32.22° C | 60% | 961.6 hPa | - | - | - | - |
| 1787459361 | 31.67° C | 60% | 961.6 hPa | - | - | - | - |
| 1787458761 | 31.67° C | 61% | 961.7 hPa | - | - | - | - |
* Rain since midnight (hover to see other rain measurements)
** Current wind speed in m/s (hover to see current wind gust speed)